Eindhoven, Netherlands

1:36 AM CEST on March 27, 2017 (GMT +0200)
Eindhoven Air Base

Weather History for EHEH - April, 2014

Change the Weather History Date:

Friday, April 4, 2014

  Actual Average Record
Temperature  
Mean Temperature 56 °F -  
Max Temperature 60 °F 58 °F 66 °F (2002)
Min Temperature 53 °F 40 °F 26 °F (2003)
Degree Days  
Heating Degree Days 8    
Growing Degree Days 6 (Base 50)    
Moisture  
Dew Point 49 °F    
Average Humidity 76    
Maximum Humidity 88    
Minimum Humidity 63    
Precipitation  
Precipitation 0.00 in - - ()
Sea Level Pressure  
Sea Level Pressure 29.77 in    
Wind  
Wind Speed 3 mph ()    
Max Wind Speed 7 mph    
Max Gust Speed -    
Visibility 6.8 miles    
Events Rain    
Averages and records for this station are not official NWS values.
T = Trace of Precipitation, MM = Missing Value Source: Averaged Metar Reports

Daily Weather History Graph

Daily Weather History Graph

Search for Another Location

Airport or City:

Trip Planner

Search our weather history database for the weather conditions in past years. The results will help you decide how hot, cold, wet, or windy it might be!

Date:

Astronomy

Apr. 04, 2014 Rise Set
Actual Time 7:07 AM CEST 8:16 PM CEST
Civil Twilight 6:33 AM CEST 8:50 PM CEST
Nautical Twilight 5:52 AM CEST 9:32 PM CEST
Astronomical Twilight 5:07 AM CEST 10:16 PM CEST
Moon 9:46 AM CEST (4/4) 12:43 AM CEST (4/4)
Length of Visible Light 14h 17m
Length of Day
13h 08m
Waxing Crescent, 23% of the Moon is Illuminated
Apr 4
Waxing Crescent
Apr 7
First Quarter
Apr 15
Full
Apr 22
Last Quarter
Apr 29
New

Hourly Weather History & Observations

Time (CEST) Temp. Dew Point Humidity Pressure Visibility Wind Dir Wind Speed Gust Speed Precip Events Conditions
12:00 AM 57 °F 48 °F 64% 29.67 in 12 mi Calm Calm - -   Mostly Cloudy
12:25 AM 57.2 °F 48.2 °F 72% 29.65 in 6.2 mi SSE 3.5 mph - N/A   Mostly Cloudy
12:55 AM 55.4 °F 48.2 °F 77% 29.65 in 6.2 mi SSW 4.6 mph - N/A   Overcast
1:00 AM 56 °F 48 °F 67% 29.68 in 12 mi SSW 4.5 mph - -   Mostly Cloudy
1:25 AM 55.4 °F 48.2 °F 77% 29.68 in 6.2 mi SSW 5.8 mph - N/A   Overcast
1:55 AM 55.4 °F 48.2 °F 77% 29.68 in 6.2 mi SSW 3.5 mph - N/A   Overcast
2:00 AM 56 °F 48 °F 66% 29.68 in 14 mi SSW 2.2 mph - -   Partly Cloudy
2:25 AM 55.4 °F 48.2 °F 77% 29.68 in 6.2 mi South 3.5 mph - N/A   Overcast
2:55 AM 57.2 °F 48.2 °F 72% 29.68 in 6.2 mi SSW 3.5 mph - N/A   Overcast
3:00 AM 56 °F 48 °F 68% 29.70 in 14 mi South 4.5 mph - -   Overcast
3:25 AM 57.2 °F 48.2 °F 72% 29.68 in 6.2 mi South 3.5 mph - N/A   Overcast
3:55 AM 57.2 °F 48.2 °F 72% 29.68 in 6.2 mi SW 3.5 mph - N/A   Light Drizzle
4:00 AM 56 °F 49 °F 71% 29.70 in 13 mi SW 4.5 mph - - Rain Rain
4:25 AM 55.4 °F 50.0 °F 82% 29.68 in 6.2 mi SW 3.5 mph - N/A   Mostly Cloudy
5:00 AM 56 °F 49 °F 70% 29.70 in 13 mi SSW 2.2 mph - - Rain Light Rain Showers
5:55 AM 55.4 °F 48.2 °F 77% 29.68 in 6.2 mi SW 3.5 mph - N/A   Overcast
6:00 AM 55 °F 49 °F 72% 29.70 in 14 mi SW 4.5 mph - - Rain Rain
6:18 AM 55.4 °F 48.2 °F 77% 29.68 in 6.2 mi SSW 3.5 mph - N/A   Overcast
6:25 AM 53.6 °F 48.2 °F 82% 29.68 in 6.2 mi SSW 3.5 mph - N/A   Overcast
6:42 AM 53.6 °F 48.2 °F 82% 29.71 in 6.2 mi SW 3.5 mph - N/A   Overcast
6:55 AM 53.6 °F 48.2 °F 82% 29.71 in 6.2 mi WSW 3.5 mph - N/A   Overcast
7:00 AM 54 °F 49 °F 77% 29.72 in 12 mi WSW 4.5 mph - -   Partly Cloudy
7:25 AM 55.4 °F 50.0 °F 82% 29.71 in 6.2 mi WSW 3.5 mph - N/A   Overcast
7:55 AM 53.6 °F 50.0 °F 88% 29.71 in 6.2 mi South 2.3 mph - N/A   Overcast
8:00 AM 54 °F 49 °F 79% 29.74 in 9 mi SSW 2.2 mph - -   Partly Cloudy
8:25 AM 53.6 °F 50.0 °F 88% 29.71 in 6.2 mi SW 2.3 mph - N/A Rain Light Rain
8:55 AM 53.6 °F 50.0 °F 88% 29.74 in 6.2 mi WSW 3.5 mph - N/A   Mostly Cloudy
9:00 AM 55 °F 50 °F 78% 29.75 in 6 mi WSW 4.5 mph - - Rain Rain
9:25 AM 55.4 °F 50.0 °F 82% 29.74 in 5.6 mi WSW 2.3 mph - N/A   Overcast
9:55 AM 55.4 °F 50.0 °F 82% 29.74 in 5.6 mi West 2.3 mph - N/A   Partly Cloudy
10:00 AM 56 °F 50 °F 74% 29.76 in 6 mi West 2.2 mph - -   Mist
10:01 AM 55.4 °F 50.0 °F 82% 29.74 in 5.6 mi West 3.5 mph - N/A   Scattered Clouds
10:25 AM 57.2 °F 50.0 °F 77% 29.74 in 6.2 mi West 2.3 mph - N/A   Overcast
10:55 AM 57.2 °F 50.0 °F 77% 29.77 in 6.2 mi West 3.5 mph - N/A   Overcast
11:00 AM 57 °F 50 °F 70% 29.78 in 7 mi West 2.2 mph - -   Partly Cloudy
11:25 AM 57.2 °F 50.0 °F 77% 29.77 in 6.2 mi NW 3.5 mph - N/A   Mostly Cloudy
11:55 AM 57.2 °F 50.0 °F 77% 29.77 in 6.2 mi NW 3.5 mph - N/A   Overcast
12:00 PM 57 °F 50 °F 69% 29.79 in 6 mi NW 2.2 mph - -   Partly Cloudy
12:25 PM 57.2 °F 50.0 °F 77% 29.77 in 6.2 mi WNW 4.6 mph - N/A   Overcast
12:55 PM 57.2 °F 50.0 °F 77% 29.77 in 6.2 mi WNW 5.8 mph - N/A   Overcast
1:00 PM 57 °F 50 °F 71% 29.79 in 6 mi WNW 4.5 mph - -   Light Haze
1:25 PM 57.2 °F 50.0 °F 77% 29.77 in 6.2 mi West 3.5 mph - N/A   Overcast
1:55 PM 59.0 °F 50.0 °F 72% 29.80 in 6.2 mi WSW 3.5 mph - N/A   Overcast
2:00 PM 58 °F 51 °F 70% 29.80 in 7 mi WSW 2.2 mph - -   Partly Cloudy
2:25 PM 59.0 °F 50.0 °F 72% 29.80 in 6.2 mi West 3.5 mph - N/A   Mostly Cloudy
2:55 PM 59.0 °F 50.0 °F 72% 29.80 in 6.2 mi West 4.6 mph - N/A   Mostly Cloudy
3:00 PM 59 °F 50 °F 64% 29.80 in 7 mi WNW 4.5 mph - -   Unknown
3:25 PM 59.0 °F 50.0 °F 72% 29.80 in 6.2 mi WNW 5.8 mph - N/A   Mostly Cloudy
3:55 PM 60.8 °F 50.0 °F 68% 29.77 in 6.2 mi WNW 3.5 mph - N/A   Mostly Cloudy
4:00 PM 60 °F 51 °F 63% 29.80 in 9 mi NNW 4.5 mph - -   Overcast
4:25 PM 59.0 °F 50.0 °F 72% 29.77 in 6.2 mi NW 5.8 mph - N/A   Mostly Cloudy
4:55 PM 59.0 °F 50.0 °F 72% 29.80 in 6.2 mi WNW 5.8 mph - N/A   Mostly Cloudy
5:00 PM 59 °F 51 °F 66% 29.81 in 9 mi NW 6.7 mph - -   Mostly Cloudy
5:25 PM 59.0 °F 50.0 °F 72% 29.80 in 6.2 mi WNW 5.8 mph - N/A   Mostly Cloudy
5:46 PM 59.0 °F 50.0 °F 72% 29.80 in 6.2 mi WNW 5.8 mph - N/A   Mostly Cloudy
5:50 PM 59.0 °F 50.0 °F 72% 29.80 in 6.2 mi WNW 5.8 mph - N/A   Mostly Cloudy
5:55 PM 59.0 °F 51.8 °F 77% 29.80 in 6.2 mi WNW 4.6 mph - N/A   Mostly Cloudy
6:00 PM 59 °F 51 °F 68% 29.81 in 10 mi WNW 4.5 mph - -   Partly Cloudy
6:19 PM 59.0 °F 50.0 °F 72% 29.80 in 6.2 mi WNW 6.9 mph - N/A   Scattered Clouds
6:25 PM 59.0 °F 50.0 °F 72% 29.80 in 6.2 mi WNW 5.8 mph - N/A   Mostly Cloudy
6:55 PM 57.2 °F 50.0 °F 77% 29.80 in 6.2 mi WNW 6.9 mph - N/A   Mostly Cloudy
7:00 PM 57 °F 50 °F 71% 29.83 in 8 mi WNW 6.7 mph - -   Mostly Cloudy
7:25 PM 57.2 °F 50.0 °F 77% 29.83 in 6.2 mi NW 5.8 mph - N/A   Overcast
7:42 PM 57.2 °F 50.0 °F 77% 29.83 in 6.2 mi WNW 5.8 mph - N/A   Mostly Cloudy
7:50 PM 55.4 °F 50.0 °F 82% 29.83 in 6.2 mi WNW 5.8 mph - N/A   Mostly Cloudy
7:55 PM 57.2 °F 50.0 °F 77% 29.83 in 6.2 mi WNW 5.8 mph - N/A   Mostly Cloudy
8:00 PM 56 °F 49 °F 72% 29.85 in 7 mi WNW 4.5 mph - -   Partly Cloudy
8:25 PM 55.4 °F 50.0 °F 82% 29.83 in 6.2 mi WNW 4.6 mph - N/A   Overcast
8:55 PM 55.4 °F 50.0 °F 82% 29.86 in 6.2 mi WNW 4.6 mph - N/A   Overcast
9:00 PM 56 °F 49 °F 72% 29.87 in 7 mi WNW 4.5 mph - -   Overcast
9:25 PM 55.4 °F 50.0 °F 82% 29.86 in 5.0 mi NW 5.8 mph - N/A   Haze
9:32 PM 55.4 °F 50.0 °F 82% 29.86 in 4.3 mi NW 5.8 mph - N/A   Haze
9:55 PM 55.4 °F 50.0 °F 82% 29.86 in 3.7 mi NW 5.8 mph - N/A   Haze
10:00 PM 55 °F 49 °F 76% 29.88 in 4 mi NW 4.5 mph - -   Light Haze
10:25 PM 55.4 °F 48.2 °F 77% 29.86 in 3.7 mi WNW 3.5 mph - N/A   Haze
10:55 PM 53.6 °F 48.2 °F 82% 29.86 in 3.7 mi WNW 1.2 mph - N/A   Haze
11:00 PM 54 °F 49 °F 77% 29.89 in 4 mi WNW 2.2 mph - -   Light Haze
11:12 PM 53.6 °F 48.2 °F 82% 29.89 in 3.1 mi NW 2.3 mph - N/A   Haze
11:25 PM 53.6 °F 48.2 °F 82% 29.89 in 3.1 mi WNW 2.3 mph - N/A   Haze
11:55 PM 53.6 °F 48.2 °F 82% 29.89 in 3.1 mi WNW 2.3 mph - N/A   Overcast